User: anonymous   Login
Location: Wawayanda State Park
(41.1833°N, 74.4333°W)
Time: 21:22:42
(UTC-04:00)
Language:

RESURS DK-1 - Orbit

View from above orbital plane
View from above orbital plane
View from above satellite
View from above satellite

Ground track
Ground track

The orbit data is extracted from the following two-line orbital elements,

1 29228U 06021A   15144.85453641  .00000759  00000-0  66031-4 0  9994
2 29228 069.9384 216.3831 0002318 018.8592 095.4022 15.01495958494843
Epoch (UTC): 24 May 2015 20:30:31
Eccentricity: 0.0002318
inclination: 69.9384°
perigee height: 560 km
apogee height: 564 km
right ascension of ascending node: 216.3831°
argument of perigee: 18.8592°
revolutions per day: 15.01495958
mean anomaly at epoch: 95.4022°
orbit number at epoch: 49484

The dashed part of the orbit path shows where the satellite is in the earth's shadow,  

DLR